Location: Newark
(40.7060°N, 73.9980°W)
Time: 02:35:47
(UTC+00:00)

N. Korean satellite - Pass Details

Date: 26 November 2019
Orbit: 455 x 506 km, 97.2° (Epoch: 10 December)

Event Time Altitude Azimuth Distance (km) Brightness Sun altitude
Rises 11:00:21 0° 8° (N) 2,596 10.1 -10.4°
Reaches altitude 10° 11:02:28 10° 5° (N) 1,700 9.2 -10.0°
Maximum altitude 11:06:05 62° 285° (WNW) 556 6.5 -9.3°
Drops below altitude 10° 11:09:37 10° 204° (SSW) 1,658 9.2 -8.7°
Sets 11:11:39 0° 201° (SSW) 2,524 10.2 -8.4°
